This demonstration page uses our WeatherBlox Daily Observations layout. Learn more.

Left ArrowRight Arrow

39.08367, -84.50855

Hourly Observations for February 20, 2016

Temp ( °F °C ) Dew Point ( °F °C ) Humidity (%) Winds ( mph kmh ) Pressure ( in mb ) Visibility ( mi km ) Precip ( " mm )
12:53 am 00:53 Clear 56 13.3 49 9.4 77 77 SW 16 26 30.03 1017 10 16 N/A
1:53 am 01:53 Clear 54 12.2 50 10 87 87 SW 9 15 30.03 1017 10 16 N/A
2:53 am 02:53 Clear 54 12.2 50 10 87 87 SW 9 15 30.04 1017 10 16 N/A
3:53 am 03:53 Clear 53 11.7 49 9.4 86 86 SW 8 13 30.03 1017 10 16 N/A
4:53 am 04:53 Clear 50 10 48 8.9 93 93 N N/A 30.03 1017 9 14 N/A
5:53 am 05:53 Clear with Mist and Fog 48 8.9 48 8.9 100 100 N N/A 30.03 1017 6 10 N/A
6:11 am 06:11 Mostly Clear with Mist and Fog 46 7.8 46 7.8 100 100 N N/A 30.03 1017 1 2 N/A
6:15 am 06:15 Mostly Cloudy with Fog 44 6.7 44 6.7 100 100 N N/A 30.03 1017 0 0 N/A
6:33 am 06:33 Mostly Cloudy with Mist and Fog 43 6.1 43 6.1 100 100 N N/A 30.03 1017 1 2 N/A
6:45 am 06:45 Mostly Clear with Mist and Fog 43 6.1 43 6.1 100 100 N N/A 30.03 1017 1 2 N/A
6:53 am 06:53 Clear with Fog 41 5 41 5 100 100 WSW 5 7 30.04 1017 7 11 N/A
7:53 am 07:53 Sunny with Fog 44 6.7 44 6.7 100 100 WSW 5 7 30.04 1017 5 8 N/A
8:53 am 08:53 Sunny with Mist and Fog 45 7.2 45 7.2 100 100 WSW 5 7 30.05 1018 5 8 N/A
9:53 am 09:53 Sunny 54 12.2 51 10.6 90 90 S 3 6 30.05 1018 9 14 N/A
10:53 am 10:53 Sunny 61 16.1 51 10.6 70 70 SSW 15 24 30.03 1017 10 16 N/A
11:53 am 11:53 Sunny 65 18.3 50 10 59 59 SSW 16 26 30.01 1016 10 16 N/A
12:53 pm 12:53 Sunny 69 20.6 46 7.8 44 44 SW 16 26 29.98 1015 10 16 N/A
1:53 pm 13:53 Sunny 71 21.7 43 6.1 36 36 WSW 22 35 29.96 1015 10 16 N/A
2:53 pm 14:53 Sunny 71 21.7 41 5 34 34 WSW 15 24 29.94 1014 10 16 N/A
3:53 pm 15:53 Sunny 72 22.2 39 3.9 30 30 WSW 18 30 29.93 1013 10 16 N/A
4:53 pm 16:53 Sunny 71 21.7 40 4.4 32 32 WSW 14 22 29.92 1013 10 16 N/A
5:53 pm 17:53 Sunny 67 19.4 42 5.6 41 41 SW 12 19 29.93 1013 10 16 N/A
6:53 pm 18:53 Clear 59 15 42 5.6 54 54 WSW 6 9 29.95 1014 10 16 N/A
7:53 pm 19:53 Clear 54 12.2 44 6.7 69 69 S 3 6 29.97 1015 10 16 N/A
8:53 pm 20:53 Clear 51 10.6 44 6.7 77 77 N N/A 29.98 1015 10 16 N/A
9:53 pm 21:53 Clear 48 8.9 43 6.1 83 83 N N/A 29.98 1015 10 16 N/A
10:53 pm 22:53 Partly Cloudy 47 8.3 43 6.1 86 86 N N/A 29.99 1016 10 16 N/A
11:53 pm 23:53 Mostly Cloudy 46 7.8 43 6.1 89 89 NNE 5 7 29.98 1015 10 16 N/A

Powered by AerisWeather